Regional Weather Roundup
Issued by NWS

Home | Current Version | Previous Version | Graphics & Text | Print | Product List | Glossary On
Versions: 1 2 3 4 5 6 7 8 9 10 11 12 13 14 15 16 17 18 19 20 21 22 23 24 25 26 27 28 29 30 31 32 33 34 35 36 37 38 39 40 41 42 43 44 45 46 47 48 49 50
000
ASUS43 KLSX 191707
RWRMO

WEATHER SUMMARY FOR MISSOURI
NATIONAL WEATHER SERVICE SPRINGFIELD MO
1100 AM CST SUN FEB 19 2017

NOTE: "FAIR" INDICATES FEW OR NO CLOUDS BELOW 12,000 FEET WITH NO
       SIGNIFICANT WEATHER AND/OR OBSTRUCTIONS TO VISIBILITY.
       CURRENT SKY AND/OR WEATHER CONDITIONS ARE NOT AVAILABLE FOR
       CHILLICOTHE AND FARMINGTON.

MOZ001>031-035>038-043-044-053-054-191800-
...NORTHERN AND WESTERN MISSOURI...

CITY           SKY/WX    TMP DP  RH WIND       PRES   REMARKS
KANSAS CTY INT MOSUNNY   64  52  64 S12       29.98R
KANSAS C DTWN  MOSUNNY   67  53  61 S15       29.98S
LEE`S SUMMIT   SUNNY     63  53  70 S10       29.99F
ST JOSEPH      SUNNY     64  53  67 S14       29.96S
CHILLICOTHE      N/A     63  52  67 SE6       30.01S
KIRKSVILLE     SUNNY     65  51  60 SW7       30.03S

$$
MOZ066>068-077>081-088>096-101>105-191800-
...SOUTHWEST MISSOURI...

CITY           SKY/WX    TMP DP  RH WIND       PRES   REMARKS
SPRINGFIELD    SUNNY     65  53  65 SE13      30.02S
JOPLIN         SUNNY     68  57  68 S9        29.99S
BRANSON        MOSUNNY   61  54  77 SE7       30.05S

$$
MOZ032>034-039>042-045>050-055>058-069>072-191800-
...CENTRAL MISSOURI...

CITY           SKY/WX    TMP DP  RH WIND       PRES   REMARKS
COLUMBIA       SUNNY     64  51  62 SE7       30.04F
JEFFERSON CITY SUNNY     59  49  69 E8        30.04F
ROLLA          SUNNY     64  53  67 S5        30.05F
SEDALIA        SUNNY     68  52  56 SE9       30.02F
WHITEMAN AFB   MOSUNNY   67  55  66 S12       30.00S
WARRENSBURG    SUNNY     63  52  67 SE9       30.00F
OSAGE BEACH    SUNNY     67  52  58 VRB5      30.03F

$$
MOZ051-052-059>065-191800-
...EAST CENTRAL MISSOURI...

CITY           SKY/WX    TMP DP  RH WIND       PRES   REMARKS
ST LOUIS INTL  MOSUNNY   64  51  62 VRB3      30.08R
SPIRIT OF STL  SUNNY     61  53  75 NW3       30.07R
ST CHARLES     SUNNY     59  50  72 CALM      30.07R

$$
MOZ072>076-082>087-097>100-106>115-191800-
...SOUTH CENTRAL AND SOUTHEAST MISSOURI...

CITY           SKY/WX    TMP DP  RH WIND       PRES   REMARKS
CAPE GIRARDEAU CLOUDY    53  51  93 VRB3      30.11R FOG
FARMINGTON     SUNNY     60  57  89 S3        30.09S
POPLAR BLUFF   FOG       52  52 100 SE3       30.11R VSB 1
WEST PLAINS    SUNNY     60  54  80 SE5       30.09S

$$



USA.gov is the U.S. government's official web portal to all federal, state and local government web resources and services.